Location: Arbon
(43.0005°N, 0.7472°E)
Time: 22:10:10
(UTC+00:00)

Altair - Pass Details

Date: 28 November 2020
Orbit: 1501 x 1682 km, 47.2° (Epoch: 26 January)

Event Time Altitude Azimuth Distance (km) Brightness Sun altitude
Rises 05:21:42 0° 284° (WNW) 4,648 - -18.5°
Reaches altitude 10° 05:27:37 10° 255° (WSW) 3,686 - -17.5°
Exits shadow 05:29:23 11° 244° (WSW) 3,584 9.0 -17.2°
Maximum altitude 05:30:21 12° 238° (WSW) 3,573 9.0 -17.0°
Drops below altitude 10° 05:33:05 10° 220° (SW) 3,713 9.3 -16.5°
Sets 05:39:11 0° 191° (S) 4,736 10.1 -15.4°
